Regional Weather Roundup
Issued by NWS

Home | Current Version | Previous Version | Graphics & Text | Print | Product List | Glossary On
Versions: 1 2 3 4 5 6 7 8 9 10 11 12 13 14 15 16 17 18 19 20 21 22 23 24 25 26 27 28 29 30 31 32 33 34 35 36 37 38 39 40 41 42 43 44 45 46 47 48 49 50
000
ASUS43 KMPX 310601
RWRMN
WEATHER ROUNDUP FOR MINNESOTA
NATIONAL WEATHER SERVICE TWIN CITIES/CHANHASSEN MN
100 AM CDT FRI OCT 31 2014


NOTE: "FAIR" INDICATES FEW OR NO CLOUDS BELOW 12,000 FEET WITH NO
SIGNIFICANT WEATHER AND/OR OBSTRUCTIONS TO VISIBILITY. N/A MEANS
CURRENT SKY AND/OR WEATHER CONDITIONS ARE NOT AVAILABLE.

MNZ060>063-068>070-310700-
   Twin Cities Metro

CITY           SKY/WX    TMP DP  RH WIND       PRES   REMARKS
TWIN CITIES    CLEAR     31  14  49 N16G25    30.39R WCI  20
6HR MIN TEMP:  31; 6HR MAX TEMP:  43;

ST PAUL        CLEAR     31  15  52 N17G26    30.40R WCI  19
CRYSTAL        CLEAR     32  13  45 N16       30.39R WCI  21
BLAINE         CLEAR     32  18  55 N14G22    30.39R WCI  22
LAKEVILLE      CLEAR     30  14  51 N15G26    30.38R WCI  19
EDEN PRAIRIE   CLEAR     32  13  45 N17G26    30.38R WCI  21
6HR MIN TEMP:  32; 6HR MAX TEMP:  44;

SOUTH ST PAUL  CLEAR     32  15  49 N14G21    30.37R WCI  22
LAKE ELMO      FAIR      32  18  55 N14G23    30.38R WCI  22
$$
MNZ001>005-007-008-013>017-022>024-027-028-310700-
   Northwest Minnesota

CITY           SKY/WX    TMP DP  RH WIND       PRES   REMARKS
BEMIDJI        CLOUDY    27  17  64 N9        30.49R WCI  18
HALLOCK        CLEAR     19  16  86 NW6       30.60R WCI  11
ROSEAU         CLEAR     25  18  74 NW7       30.56R WCI  17
WARROAD        PTCLDY    25  19  80 NW6       30.55R WCI  18
THIEF RVR FALL CLEAR     25  18  74 N9        30.56R WCI  15
CROOKSTON      CLEAR     21  18  86 N7        30.59R WCI  13
FOSSTON        CLEAR     19  16  86 N8        30.54R WCI   9
DETROIT LAKES  CLEAR     27  23  86 N10G16    30.52R WCI  17
MOORHEAD       CLEAR     23  21  93 N9        30.57R WCI  13
PARK RAPIDS    CLEAR     25  17  72 N8        30.47R WCI  16
MAHNOMEN       FAIR      24  19  80 N9        30.52S WCI  14
$$
MNZ006-009>011-018-025>026-310700-
   North Central Minnesota

CITY           SKY/WX    TMP DP  RH WIND       PRES   REMARKS
BAUDETTE       PTCLDY    27  16  63 N8        30.52R WCI  19
FLAG ISLAND    CLEAR     28  19  69 NE14      30.54R WCI  17
INTL FALLS     CLOUDY    28  16  60 N16G23    30.48R WCI  16
6HR MIN TEMP:  27; 6HR MAX TEMP:  30; 6HR PCP: TRACE;

WASKISH        CLOUDY    28  18  64 CALM      30.51R
BIG FORK       MOCLDY    28  18  64 N8        30.46R WCI  20
LONGVILLE      PTCLDY    28  18  64 N10G22    30.45R WCI  19
GRAND RAPIDS   CLOUDY    27  18  69 N16       30.42R WCI  14
CRANE LAKE     CLOUDY    27  21  80 N7        30.46R WCI  19
ORR            CLOUDY    27  16  63 N5        30.42R WCI  21
COOK           PTCLDY    27  18  69 N9G24     30.43R WCI  17
WALKER         FAIR      27  15  59 N9G21     30.47R WCI  18
$$
MNZ012-019>021-037-310700-
   Northeast Minnesota

CITY           SKY/WX    TMP DP  RH WIND       PRES   REMARKS
DULUTH         MOCLDY    28  16  60 N15G26    30.34R WCI  16
6HR MIN TEMP:  28; 6HR MAX TEMP:  34; 6HR PCP: TRACE;

ELY            CLOUDY    25  18  74 N12G21    30.38R WCI  14
HIBBING        CLOUDY    28  17  63 N13G24    30.41R WCI  17
EVELETH        CLOUDY    28  19  69 N10G22    30.40R WCI  19
DULUTH HARBOR  CLEAR     34  23  64 N21G28    30.39R WCI  22
TWO HARBORS    PTCLDY    30  21  69 N7G18     30.34R WCI  23
SILVER BAY     CLEAR     30  21  69 N7        30.33R WCI  23
GRAND MARAIS     N/A     30  19  63 VRB3      30.32R
$$
MNZ029>031-032-039>041-046>048-054>057-064-310700-
   West Central Minnesota

CITY           SKY/WX    TMP DP  RH WIND       PRES   REMARKS
FERGUS FALLS   CLEAR     27  18  69 N9        30.54R WCI  17
WHEATON        CLEAR     23  19  86 NW8       30.57R WCI  14
MORRIS         CLEAR     25  21  86 NW10      30.50R WCI  15
ALEXANDRIA     CLEAR     29  17  61 N16       30.48R WCI  17
ELBOW LAKE     FAIR      26  20  77 N10       30.51R WCI  17
WADENA         CLEAR     25  18  74 NW7       30.48R WCI  17
GLENWOOD       CLEAR     27  18  69 N12       30.47R WCI  16
APPLETON       CLEAR     28  21  74 N13       30.51R WCI  18
BENSON         CLEAR     27  19  74 N8        30.49S WCI  18
ORTONVILLE     CLEAR     27  19  74 N12       30.53R WCI  16
MADISON        CLEAR     32  25  74 N15       30.51R WCI  22
WILLMAR        FAIR      30  18  59 N10       30.48R WCI  21
$$
MNZ033>034-036-042>043-049>051-058-059-310700-
   Central Minnesota

CITY           SKY/WX    TMP DP  RH WIND       PRES   REMARKS
ST CLOUD       FAIR      31  14  49 N14G20    30.43R WCI  21
6HR MIN TEMP:  30; 6HR MAX TEMP:  42;

SAUK CENTRE    FAIR      27  18  67 NW9       30.46R WCI  18
PAYNESVILLE    CLEAR     26  15  62 NW9       30.45S WCI  17
AITKIN         CLOUDY    30  19  64 N12G17    30.41R WCI  21
PINE RIVER     PTCLDY    28  18  64 N12       30.48R WCI  18
BRAINERD       PTCLDY    28  16  60 N15       30.45R WCI  16
STAPLES        PTCLDY    23  18  80 NW7       30.47R WCI  15
LONG PRAIRIE   FAIR      27  18  69 NW7       30.46R WCI  19
LITTLE FALLS   CLEAR     30  16  55 N5        30.44R WCI  25
LITCHFIELD     CLEAR     28  19  69 N12       30.44R WCI  18
BUFFALO        CLEAR     31  14  50 NW9       30.42R WCI  23
MAPLE LAKE     CLEAR     31  18  57 NW14G21   30.43R WCI  21
$$
MNZ037-044-045-052-053-310700-
   East Central Minnesota

CITY           SKY/WX    TMP DP  RH WIND       PRES   REMARKS
PRINCETON      CLEAR     30  18  59 NW12G18   30.41R WCI  21
MORA           CLEAR     30  18  59 N7        30.41R WCI  23
CAMBRIDGE      CLEAR     30  18  59 NW9       30.38R WCI  22
RUSH CITY      CLEAR     29  18  62 N13       30.40R WCI  19
MOOSE LAKE     MOCLDY    30  18  59 N12G20    30.37R WCI  21
HINCKLEY       FAIR      30  19  64 N14G22    30.40R WCI  20
CLOQUET        PTCLDY    28  16  59 N21G32    30.36R WCI  15
MCGREGOR       CLOUDY    30  19  64 N16       30.41R WCI  19
$$
MNZ071>073-080-081-089-090-097-098-310700-
   Southwest Minnesota

CITY           SKY/WX    TMP DP  RH WIND       PRES   REMARKS
MONTEVIDEO     CLEAR     28  23  80 N13       30.50R WCI  18
GRANITE FALLS  CLEAR     29  22  77 NW12      30.50R WCI  19
CANBY          CLEAR     28  22  78 N10G17    30.52R WCI  19
MARSHALL       CLEAR     27  18  69 N16       30.47R WCI  14
REDWOOD FALLS  CLEAR     29  22  75 NW10      30.46R WCI  20
OLIVIA         CLEAR     30  21  69 N10       30.45S WCI  21
PIPESTONE      CLEAR     28  19  69 N10G16    30.45R WCI  19
WINDOM         CLEAR     28  21  74 NW15      30.42R WCI  17
WORTHINGTON    CLEAR     28  19  69 N13       30.44R WCI  18
JACKSON        CLEAR     32  19  59 N12G20    30.41R WCI  23
TRACY          CLEAR     29  23  78 N14       30.46R WCI  18
SLAYTON        CLEAR     28  21  74 N16G24    30.45R WCI  16
$$
MNZ065>067-074>077-082>085-091>093-310700-
   South Central Minnesota

CITY           SKY/WX    TMP DP  RH WIND       PRES   REMARKS
MANKATO        CLEAR     32  12  43 N17G23    30.39R WCI  21
NEW ULM        CLEAR     30  19  64 N14       30.42R WCI  20
ST JAMES       CLEAR     32  19  59 NW13G18   30.42R WCI  22
FAIRMONT       CLEAR     30  16  55 N20G25    30.39R WCI  18
GLENCOE        CLEAR     31  16  53 NW10      30.42R WCI  23
FARIBAULT      CLEAR     30  12  47 N15G24    30.37R WCI  19
OWATONNA       CLEAR     32  12  43 N21G29    30.35R WCI  20
WASECA         CLEAR     32  12  43 N16G24    30.37R WCI  21
ALBERT LEA     CLEAR     32  18  55 N10       30.33R WCI  24
$$
MNZ078>079-086>088-094>096-310700-
   Southeast Minnesota

CITY           SKY/WX    TMP DP  RH WIND       PRES   REMARKS
ROCHESTER      CLEAR     31  13  47 N21G37    30.29R WCI  18
6HR MIN TEMP:  31; 6HR MAX TEMP:  45;

RED WING       CLEAR     32  12  43 N10G21    30.34R WCI  24
STANTON        CLEAR     32  13  46 N21G31    30.35R WCI  20
DODGE CENTER   PTCLDY    30  16  55 N22G29    30.31R WCI  17
WINONA         PTCLDY    36  18  48 N18G35    30.28R
AUSTIN         CLEAR     32  16  51 N17G26    30.30R WCI  21
PRESTON        PTCLDY    31  18  58 N18G32    30.26R WCI  20
$$
ABBREVIATIONS USED IN REMARKS
   TC - TEMPERATURES IN CELSIUS
  WCI - WIND CHILL INDEX
   HX - HEAT INDEX
  VSB - VISIBILITY
$$



USA.gov is the U.S. government's official web portal to all federal, state and local government web resources and services.